Flag for Austria Weather past 2 weeks in Amstetten, Lower Austria, Austria

Now
63 °F

Rain. Low clouds.


Feels Like: 63 °F
Forecast: 57 / 88 °F
Wind: N/A

Location: Linz / Hoersching-Flughafen

Current Time: Aug 1, 2014 at 8:04:42 AM

Latest Report: Aug 1, 2014 at 7:00 AM


Visibility: 4 mi

Pressure: 29.93 "Hg

Humidity: 94%

Dew point: 61 °F

Location of AmstettenLocation

Historic Weather in Amstetten — Graph

°F

Amstetten temperature yesterday

Maximum temperature yesterday: 69 °F (at 2:00 PM)
Minimum temperature yesterday: 62 °F (at 11:00 PM)
Average temperature yesterday: 66 °F

Past Weeks' High & Low Weather Summary

 TemperatureHumidityPressure
High95 °F (Jul 20, 5:00 PM)100% (Jul 23, 3:00 AM)30.15 "Hg (Jul 23, 3:00 AM)
Low53 °F (Jul 24, 6:00 AM)24% (Jul 20, 5:00 PM)29.65 "Hg (Jul 29, 8:00 PM)
Average70 °F74%29.88 "Hg
* Reported Jul 17 6:00 AM — Aug 1 6:00 AM, Amstetten, Weather by CustomWeather, © 2014

Note: Actual official high and low records may vary slightly from our data, if they occured in-between our weather recording intervals... More about our weather records

Advertising

Amstetten weather history for previous 24 hours

 ConditionsComfort  
Time TempWeatherWind HumidityBarometerVisibility
6:00 AM
Aug 1
62 °FLow clouds.N/A94%29.95 "Hg2 mi
5:00 AM62 °FOvercast.N/A95%29.96 "Hg3 mi
4:00 AM62 °FOvercast.N/A96%29.95 "Hg3 mi
3:00 AM62 °FOvercast.N/A95%29.97 "Hg4 mi
2:00 AM62 °FOvercast.N/A95%29.98 "Hg4 mi
1:00 AM62 °FOvercast.N/A93%29.99 "Hg6 mi
12:00 AM62 °FLow clouds.N/A96%29.99 "Hg3 mi
11:00 PM
Jul 31
62 °FDrizzle. Overcast.N/A96%29.99 "Hg3 mi
10:00 PM63 °FOvercast.N/A95%29.99 "Hg5 mi
9:00 PM63 °FDrizzle. Overcast.N/A96%29.97 "Hg2 mi
8:00 PM64 °FDrizzle. Overcast.N/A93%29.96 "Hg4 mi
7:00 PM63 °FDrizzle. Overcast.5 mph93%29.96 "Hg3 mi
6:00 PM66 °FOvercast.5 mph82%29.94 "Hg22 mi
5:00 PM67 °FOvercast.N/A81%29.94 "Hg19 mi
4:00 PM67 °FOvercast.5 mph83%29.93 "Hg22 mi
3:00 PM68 °FOvercast.6 mph75%29.92 "Hg28 mi
2:00 PM69 °FOvercast.5 mph75%29.90 "Hg28 mi
1:00 PM68 °FOvercast.6 mph77%29.90 "Hg22 mi
12:00 PM68 °FLow clouds.6 mph87%29.88 "Hg22 mi
11:00 AM67 °FOvercast.5 mph89%29.88 "Hg22 mi
10:00 AM67 °FLight rain. Overcast.5 mph91%29.86 "Hg11 mi
9:00 AM66 °FLow clouds.5 mph93%29.85 "Hg19 mi
8:00 AM66 °FHeavy rain. Low clouds.N/A94%29.84 "Hg4 mi
Weather by CustomWeather, © 2014

See weather overviewHow to use our weather pages